Theta_e
352 352 353 352 351 351 351 351 348 348 345 347 346 347 348 348 349 348 347 340 349 347 345 347 350 352 349 349 348 346 346 343 342 346 345 345 346 347 346 339 342 349 349
354 354 354 354 352 352 352 349 347 346 346 346 347 348 349 349 350 349 349 350 349 347 347 340 350 351 351 350 349 349 349 347 347 346 347 347 346 348 348 347 346 346 349
355 354 354 354 354 353 351 349 346 344 345 346 348 348 348 348 350 349 347 349 347 349 350 350 350 349 350 349 350 349 349 349 349 349 348 347 347 347 347 347 349 349 349
356 356 355 354 355 353 352 350 347 344 343 345 347 344 343 348 349 348 349 349 347 348 348 351 350 349 350 350 349 348 348 349 348 349 348 348 347 347 348 348 347 346 343
353 356 356 355 354 353 352 351 349 347 344 344 346 347 344 348 349 348 348 348 350 349 346 351 351 351 349 349 351 349 346 347 345 348 347 346 346 346 345 344 345 345 344
346 355 356 355 354 353 352 352 350 350 347 344 346 348 347 349 349 348 348 348 349 350 350 350 349 351 350 349 349 348 346 345 349 347 347 346 347 346 346 346 346 346 342
352 356 356 355 354 352 352 352 351 351 350 346 346 349 348 347 348 347 349 348 348 349 350 350 350 350 350 348 348 348 348 349 348 348 348 347 347 347 347 346 346 345 344
344 350 355 355 354 353 351 351 352 352 351 348 346 349 348 348 346 343 345 347 347 349 349 350 349 348 348 348 347 346 347 348 349 348 348 348 348 348 346 346 346 347 345
346 345 350 353 354 352 352 351 351 351 351 350 347 348 349 349 348 346 346 347 348 349 348 348 348 349 348 348 347 347 348 348 348 347 346 345 345 344 344 348 347 346 342
340 346 347 347 353 353 352 352 352 351 351 350 350 347 347 348 349 348 347 348 349 349 348 348 348 348 349 347 346 348 348 347 346 346 344 344 343 342 343 344 348 346 341
341 342 341 344 344 353 353 352 352 351 351 350 350 350 349 348 349 349 347 347 349 349 349 349 347 347 346 344 344 346 347 346 346 344 341 339 330 331 332 339 342 342 340
334 343 335 337 340 340 350 353 352 350 351 351 351 350 350 350 350 349 348 348 348 349 348 348 347 345 343 344 347 348 346 348 346 342 334 331 334 333 334 336 336 336 336
334 343 336 334 339 339 341 350 351 349 351 350 350 350 350 351 351 350 349 349 349 349 349 348 346 343 344 344 345 345 348 347 343 336 332 333 334 336 336 335 334 333 332
334 341 338 337 338 341 346 347 350 350 349 351 349 351 351 351 351 350 350 349 350 350 349 347 344 341 344 344 345 347 346 344 339 331 333 334 334 335 337 334 331 333 333
325 331 337 338 338 340 344 346 348 334 332 345 349 348 348 349 348 350 349 349 349 348 349 344 341 344 343 343 342 340 336 333 332 333 334 334 335 335 335 333 333 334 333
323 327 335 338 338 339 343 335 343 342 340 332 339 343 340 340 341 338 343 344 347 348 345 339 340 344 343 341 339 336 335 335 336 335 334 335 335 334 333 332 332 332 332
322 323 328 337 337 339 342 337 331 332 338 342 344 347 344 342 338 336 333 339 343 346 339 339 340 343 344 343 339 337 337 337 336 336 334 333 333 333 331 331 331 331 331
322 321 326 332 336 338 339 339 336 333 333 333 343 345 339 334 332 332 334 334 333 338 342 343 343 343 343 337 337 338 339 336 336 334 331 330 331 330 329 328 328 328 328
321 322 327 333 335 337 337 336 335 333 333 335 335 337 336 331 328 331 336 331 336 338 342 344 344 343 337 337 338 339 336 335 333 331 329 330 330 329 328 327 327 327 326
321 321 329 333 334 334 335 334 334 333 333 333 332 328 328 332 333 331 333 331 338 340 342 344 344 339 336 339 338 336 334 332 330 330 330 330 329 328 327 327 326 326 325
320 324 332 334 334 333 331 332 333 334 334 333 331 330 329 330 328 330 334 333 340 342 344 345 343 338 340 337 335 335 333 331 331 330 330 328 327 326 326 325 324 324 323
323 327 332 333 332 330 330 330 331 331 332 332 330 330 329 330 330 332 333 339 342 344 343 344 342 341 337 335 335 333 332 331 331 330 327 325 325 325 324 324 324 323 322
330 333 333 333 331 330 330 332 333 331 331 330 330 330 331 332 332 332 333 335 337 340 342 342 340 337 335 334 333 331 331 330 328 327 325 325 324 324 324 323 322 322 322
334 334 333 332 330 330 332 335 335 334 332 331 330 330 331 330 331 331 333 335 335 339 340 339 337 334 334 332 331 331 328 326 325 325 325 324 324 324 323 321 322 321 320
333 333 331 330 330 331 333 335 336 335 334 335 332 332 330 333 332 333 335 337 336 339 338 337 334 333 333 332 331 330 328 325 324 325 325 324 324 323 322 321 321 321 321
333 333 332 332 332 333 334 335 334 334 335 336 336 335 334 334 334 335 337 338 337 338 337 333 333 333 332 331 330 330 329 328 326 324 324 324 323 322 322 322 322 322 322
Wind_Speed
32 32 32 31 29 27 24 23 21 21 21 20 19 19 18 19 17 17 17 19 17 14 13 13 11 12 12 8 9 8 10 15 6 12 11 5 9 9 8 9 13 13 14
33 33 34 30 29 27 25 21 20 20 19 20 20 19 19 21 22 21 21 22 19 17 15 15 12 9 11 9 9 8 9 10 11 13 9 7 6 6 9 11 10 15 18
29 30 33 32 30 30 28 23 23 23 22 22 22 23 19 21 25 24 24 23 20 18 13 15 14 11 10 10 10 10 9 11 13 13 12 9 9 9 10 12 11 9 8
24 27 31 34 34 33 31 27 26 26 25 25 23 25 25 23 25 25 25 23 22 19 18 15 14 14 15 14 15 15 14 15 14 14 12 10 9 9 7 9 10 11 16
21 29 35 37 34 33 32 29 26 27 28 27 28 29 24 23 25 27 26 27 23 20 19 18 19 18 17 17 19 19 17 17 16 15 13 11 12 14 15 11 13 14 16
22 27 34 24 35 32 32 30 28 26 27 27 29 25 23 24 26 28 28 27 23 21 22 22 21 18 17 17 16 18 15 15 17 14 15 15 18 16 14 12 11 8 3
15 27 28 30 29 30 31 29 31 29 27 31 31 27 29 29 29 27 27 27 25 24 23 23 24 22 20 19 17 17 19 20 20 21 19 18 17 15 13 11 10 9 9
16 19 23 32 32 30 31 33 35 33 30 32 35 33 30 29 26 29 27 25 25 25 25 26 26 22 21 19 18 17 16 16 16 17 18 15 15 15 16 15 14 13 12
15 18 19 24 31 30 32 34 35 34 34 34 36 38 36 33 29 27 26 27 26 25 25 25 27 26 23 20 18 17 17 17 16 15 13 11 10 11 12 11 13 12 7
12 14 16 14 23 30 35 32 33 33 37 36 36 38 40 38 33 29 28 28 26 26 24 21 19 21 22 20 18 18 18 19 14 11 10 11 13 15 14 14 14 12 13
16 11 15 14 16 23 32 35 31 32 28 30 35 37 37 36 34 31 28 28 28 29 29 27 26 24 24 22 20 21 22 15 11 10 10 13 14 14 14 16 15 16 17
19 16 16 17 16 17 19 31 31 27 32 31 31 30 36 37 35 32 29 28 28 29 31 31 28 23 19 20 23 22 18 14 13 11 11 10 9 8 8 9 10 11 12
20 20 18 19 18 19 17 21 23 25 24 25 27 26 27 33 37 35 31 29 30 31 31 27 22 19 18 16 16 18 17 15 13 12 12 10 8 8 9 8 10 11 11
20 22 22 20 20 17 16 20 20 17 16 18 23 25 26 25 32 36 35 34 33 32 29 24 19 17 14 12 10 11 13 14 14 14 14 12 12 12 11 12 12 11 9
23 21 22 21 19 14 9 15 20 19 8 25 16 17 13 16 19 30 36 35 35 32 29 21 19 16 16 15 13 13 14 14 15 17 17 15 14 12 12 11 11 10 8
23 23 22 20 17 10 4 12 7 19 20 12 10 12 10 6 9 19 26 29 29 32 26 27 26 24 24 22 19 17 16 17 19 19 17 15 12 10 11 9 9 9 8
20 24 23 21 16 11 11 19 16 18 26 39 46 33 9 13 24 31 34 30 32 31 25 27 26 29 29 27 24 20 18 16 16 16 16 14 11 9 8 8 7 6 5
24 24 25 24 20 17 16 20 20 21 19 20 30 32 28 25 21 28 36 26 29 30 28 28 29 29 29 27 24 21 18 14 15 17 15 13 12 11 10 9 9 9 7
26 26 26 24 24 22 21 22 22 18 16 13 15 18 20 21 21 26 25 23 27 27 31 31 30 29 26 22 20 18 19 20 19 17 15 14 14 13 11 9 9 8 6
29 29 26 22 18 19 22 20 20 17 18 19 20 14 15 23 21 18 22 28 27 29 31 33 31 27 23 21 20 19 19 19 18 16 16 16 15 14 11 10 8 7 5
24 25 24 20 18 18 20 21 21 19 17 19 20 19 12 18 15 21 26 30 30 29 32 33 29 25 23 21 20 22 23 21 19 18 17 15 13 12 11 8 8 7 6
25 25 24 22 19 16 19 19 19 20 21 21 20 21 17 16 15 14 25 30 32 35 33 33 29 26 24 24 24 23 20 19 18 18 16 14 15 13 10 9 9 8 8
25 25 23 21 19 19 17 17 17 18 20 21 18 20 22 23 21 18 20 24 30 35 30 29 25 24 25 26 23 19 19 19 18 17 17 16 15 13 12 12 11 10 11
20 22 21 20 20 23 15 12 18 20 18 20 19 21 23 25 25 25 21 21 25 31 28 26 25 26 28 24 21 18 12 12 15 17 17 17 15 14 13 12 13 11 10
13 18 20 21 21 19 18 16 17 19 15 12 21 22 26 23 24 22 21 23 26 28 27 26 26 28 25 24 23 20 16 15 15 17 18 17 17 16 14 12 12 11 9
14 15 17 18 19 18 18 14 11 11 12 11 11 14 19 24 22 23 25 26 27 27 27 30 29 27 21 22 20 19 20 18 17 17 18 17 18 18 16 13 11 9 8
Wind_Direction
227 228 223 226 228 231 233 244 237 231 237 222 221 216 221 225 227 229 225 223 229 221 216 212 224 233 220 238 233 235 226 225 239 280 288 268 290 299 267 270 269 269 268
228 226 228 226 228 232 229 235 225 236 231 224 222 220 224 228 232 229 223 227 227 223 221 218 226 213 222 230 238 247 252 242 232 258 277 287 295 292 297 296 285 274 281
229 226 230 227 227 232 232 227 223 221 226 228 232 232 236 235 232 230 226 227 230 234 229 234 230 230 235 243 242 248 241 239 243 249 265 271 281 290 292 286 289 287 297
235 224 233 233 233 231 234 231 223 219 223 225 230 240 249 236 233 233 227 231 232 237 242 238 236 241 248 255 256 256 251 245 241 250 265 275 283 291 282 287 278 287 296
260 233 235 235 240 229 231 234 228 226 228 229 228 233 238 238 236 236 227 226 228 235 238 241 247 251 255 260 262 254 255 261 258 254 261 270 277 282 283 283 283 294 298
256 251 242 227 237 231 228 228 231 226 228 227 228 242 236 237 236 239 236 232 230 234 242 248 251 251 254 259 265 261 261 270 269 263 260 263 275 277 280 279 278 288 313
311 269 256 247 237 231 231 225 231 228 224 224 227 235 230 235 234 235 239 239 238 240 246 253 253 251 257 260 261 264 266 265 261 265 266 267 271 280 286 282 271 273 279
338 331 265 249 244 238 227 223 221 229 227 223 225 231 234 234 239 236 235 241 245 247 251 254 255 255 254 253 260 262 264 266 266 268 267 272 277 284 283 280 269 272 275
335 345 339 257 245 235 229 221 221 218 226 226 228 228 230 235 237 235 234 237 241 248 254 255 255 254 252 254 256 255 262 265 266 263 260 270 276 288 289 277 262 254 269
317 324 340 344 264 243 237 231 227 225 222 225 226 229 233 235 235 237 236 238 240 242 243 249 252 248 251 253 257 254 255 264 263 240 245 257 273 280 277 271 265 256 263
294 305 318 329 331 269 245 242 233 220 219 220 222 228 233 233 233 235 236 235 238 241 244 246 247 249 253 253 252 244 245 260 257 245 257 278 287 286 274 263 261 262 263
301 287 306 311 322 324 277 243 241 218 214 217 219 225 232 237 235 235 233 234 238 242 247 252 255 250 251 253 247 246 239 242 241 247 268 279 302 315 291 273 266 261 269
301 280 293 305 312 323 312 267 237 224 215 214 207 218 227 231 237 237 236 236 238 241 246 251 246 247 247 255 248 242 227 227 235 251 255 256 271 281 281 245 258 270 277
307 287 296 302 312 333 332 304 239 226 246 231 218 212 214 218 228 236 230 231 233 236 239 238 237 238 234 224 204 206 211 224 239 247 247 258 268 269 272 260 272 273 271
303 295 288 291 304 323 326 305 242 228 262 292 238 225 211 215 241 240 231 230 232 225 224 219 216 213 206 202 210 219 227 231 232 236 243 255 263 261 256 256 262 264 265
290 291 283 284 292 304 258 79 190 232 217 226 253 186 123 63 1 3 282 246 239 228 210 209 217 213 213 216 221 226 230 234 238 239 240 240 241 242 250 255 255 255 265
278 281 285 277 269 266 203 175 150 158 176 189 203 201 220 262 295 304 313 281 244 225 211 214 215 216 222 227 229 228 232 245 248 228 217 224 235 228 223 226 227 225 223
275 276 274 269 254 248 226 222 206 186 197 198 206 206 196 204 223 270 256 290 233 211 215 215 218 222 224 227 227 226 234 235 207 204 216 221 217 222 227 229 227 228 228
269 268 265 255 244 242 236 224 217 216 221 231 220 220 208 217 204 196 216 243 218 205 209 216 223 222 222 223 224 226 229 215 205 207 217 217 214 215 212 226 236 232 235
264 255 252 237 229 228 234 228 225 235 246 263 250 243 223 205 187 205 233 221 210 206 207 213 219 222 221 222 224 222 208 202 207 212 211 209 207 214 222 215 220 221 232
251 243 239 224 223 228 231 240 240 245 252 257 255 246 245 217 205 204 212 210 208 213 218 220 217 214 217 219 219 203 201 204 208 208 204 206 213 213 214 209 207 213 223
247 244 237 223 224 221 228 235 243 249 252 249 249 247 245 227 225 211 228 216 216 222 225 225 213 212 219 214 200 196 202 209 208 207 204 198 190 190 206 211 209 208 202
242 239 237 228 226 230 221 232 237 243 244 241 231 225 220 217 214 231 237 235 224 218 215 205 207 210 210 199 198 203 203 210 210 202 198 198 194 195 192 200 210 208 201
251 243 232 226 220 216 222 244 252 246 240 238 230 215 216 225 228 237 239 229 224 209 198 200 203 204 192 192 194 192 191 186 190 193 197 197 196 192 196 194 188 187 190
254 234 219 206 208 216 240 257 253 237 243 264 227 218 220 218 219 225 218 215 221 204 201 201 199 193 193 196 192 186 189 184 177 186 195 199 194 192 187 181 183 187 195
236 226 219 206 213 232 246 262 247 236 236 263 243 226 215 214 204 197 204 208 215 209 208 197 194 192 193 193 190 197 197 197 189 191 194 195 191 187 189 187 194 206 217